AKITA_AIRPORT current weather conditions

sailwx.info

Wind at 1 knots

Air temperature -2.0° C
Visibility: greater than 5.4 NM
Dewpoint -7.0° C

Last reported at 2020-Jan-25 12:00 UTC.
Time now 2020-Jan-25 15:14 UTC

Location: N 39°37' E 140°13'.
View on Google Maps.

See reports from other nearby stations

  
Tides and Currents Weather Stations Pressure Air Temp Water Temp Dewpoint Dewpoint Depression Visibility Wind Speed Wind Dir Waves Ship Positions
date/time (UTC)wind fromknots sea level pressurealtimeterstation pressurevisibilityair tempwater tempwave heightnotes
2020-Jan-25 12:00 5.4-2.0
2020-Jan-25 11:00 320 2 5.4-1.0 Light snow showers.
2020-Jan-25 10:00 340 1 5.4-1.0 Light snow showers.
2020-Jan-25 09:00 340 2 5.4-1.0
2020-Jan-25 08:00 340 4 5.4-1.0
2020-Jan-25 07:00 290 9 5.4-0.0 Showers in the vicinity.
2020-Jan-25 06:00 310 8 5.4-0.0 Light snow showers.
2020-Jan-25 05:00 300 9 5.4-0.0
2020-Jan-25 04:00 300 8 5.4-0.0 Light snow showers.
2020-Jan-25 03:00 300 9 5.4-0.0
2020-Jan-25 02:00 320 7 5.4-0.0 Showers in the vicinity.
2020-Jan-25 01:00 330 6 5.4-1.0 Showers in the vicinity.
2020-Jan-25 00:00 330 7 5.4-1.0 Light snow showers.
2020-Jan-24 23:00 340 7 5.4-2.0 Showers in the vicinity.
2020-Jan-24 22:00 340 6 5.4-2.0 Light snow showers.
2020-Jan-24 21:40 350 6 5.4-2.0 Light snow showers.
2020-Jan-24 12:00 300 9 5.4-0.0
2020-Jan-24 11:00 300 12 5.4-0.0
2020-Jan-24 10:00 310 6 5.4-0.0 Light snow showers.
2020-Jan-24 09:00 320 5 5.4-1.0 Light snow showers.
2020-Jan-24 08:00 320 7 5.4-1.0
2020-Jan-24 07:00 320 11 5.4-1.0
2020-Jan-24 06:00 310 13 5.4-0.0
2020-Jan-24 05:12 310 11 3.8-0.0 Light rain showers.
2020-Jan-24 05:09 310 12 1.6-0.0 Light rain showers. Mist.
2020-Jan-24 05:00 320 13 1.1-0.0 Light rain showers. Mist.
2020-Jan-24 04:46 320 13 0.8 1.0 Light rain showers. Mist.
2020-Jan-24 04:41 320 13 1.1 1.0 Light rain showers. Mist.
2020-Jan-24 04:21 320 12 1.0 1.0 Light rain showers. Mist.
2020-Jan-24 04:00 330 11 1.6 1.0 Light rain showers. Mist.
2020-Jan-24 03:13 320 8 1.6 2.0 Light rain showers. Mist.
2020-Jan-24 03:00 310 8 1.6 2.0 Light rain showers. Mist.
2020-Jan-24 02:34 310 6 2.2 2.0 Light rain showers. Mist.
2020-Jan-24 02:27 300 4 1.6 2.0 Light rain showers. Small hail/snow pellets. Mist.
2020-Jan-24 02:00 330 4 2.2 2.0 Light rain showers. Mist.
2020-Jan-24 01:39 2.2 1.0 Light rain showers. Partial fog. Mist.
2020-Jan-24 01:29 2.2-0.0 Light rain showers. Partial fog. Mist.
2020-Jan-24 01:27 1.9-0.0 Light rain showers. Partial fog. Mist.
2020-Jan-24 01:25 1.3-0.0 Light rain showers. Patches of fog. Mist.
2020-Jan-24 01:18 160 2 1.0-0.0 Light rain showers. Patches of fog. Mist.
2020-Jan-24 01:13 0.3-0.0 Light rain showers. Fog.
2020-Jan-24 01:11 0.3-0.0 Light rain showers. Fog.
2020-Jan-24 01:03 170 2 0.2-0.0 Light rain showers. Fog.
2020-Jan-24 01:00 170 2 0.2-0.0 Light rain showers. Fog.
2020-Jan-24 00:38 160 2 0.2-0.0 Light rain showers. Fog.
2020-Jan-24 00:22 140 2 0.1-0.0 Fog.
2020-Jan-24 00:00 160 4 0.1-0.0 Fog.
2020-Jan-23 23:00 150 2 0.1-1.0 Fog.
2020-Jan-23 22:00 150 2 0.1-1.0 Fog.
2020-Jan-23 21:40 150 4 0.1-1.0 Fog.